Year,Month,Day,Hour,Minute,Value (Times are PST for temperature in C)
2017,06,24,00,00,14.80
2017,06,24,00,01,14.80
2017,06,24,00,02,14.80
2017,06,24,00,03,14.80
2017,06,24,00,04,14.80
2017,06,24,00,05,14.70
2017,06,24,00,06,14.70
2017,06,24,00,07,14.70
2017,06,24,00,08,14.70
2017,06,24,00,09,14.60
2017,06,24,00,10,14.60
2017,06,24,00,11,14.60
2017,06,24,00,12,14.60
2017,06,24,00,13,14.50
2017,06,24,00,14,14.50
2017,06,24,00,15,14.40
2017,06,24,00,16,14.40
2017,06,24,00,17,14.40
2017,06,24,00,18,14.40
2017,06,24,00,19,14.30
2017,06,24,00,20,14.30
2017,06,24,00,21,14.30
2017,06,24,00,22,14.30
2017,06,24,00,23,14.20
2017,06,24,00,24,14.20
2017,06,24,00,25,14.20
2017,06,24,00,26,14.20
2017,06,24,00,27,14.10
2017,06,24,00,28,14.10
2017,06,24,00,29,14.10
2017,06,24,00,30,14.10
2017,06,24,00,31,14.10
2017,06,24,00,32,14.10
2017,06,24,00,33,14.00
2017,06,24,00,34,14.00
2017,06,24,00,35,14.00
2017,06,24,00,36,14.00
2017,06,24,00,37,13.90
2017,06,24,00,38,13.90
2017,06,24,00,39,13.90
2017,06,24,00,40,13.90
2017,06,24,00,41,13.90
2017,06,24,00,42,13.90
2017,06,24,00,43,13.80
2017,06,24,00,44,13.80
2017,06,24,00,45,13.80
2017,06,24,00,46,13.80
2017,06,24,00,47,13.80
2017,06,24,00,48,13.80
2017,06,24,00,49,13.80
2017,06,24,00,50,13.80
2017,06,24,00,51,13.70
2017,06,24,00,52,13.70
2017,06,24,00,53,13.70
2017,06,24,00,54,13.70
2017,06,24,00,55,13.70
2017,06,24,00,56,13.70
2017,06,24,00,57,13.70
2017,06,24,00,58,13.70
2017,06,24,00,59,13.60
2017,06,24,01,00,13.60
2017,06,24,01,01,13.60
2017,06,24,01,02,13.60
2017,06,24,01,03,13.50
2017,06,24,01,04,13.50
2017,06,24,01,05,13.50
2017,06,24,01,06,13.40
2017,06,24,01,07,13.40
2017,06,24,01,08,13.40
2017,06,24,01,09,13.40
2017,06,24,01,10,13.30
2017,06,24,01,11,13.30
2017,06,24,01,12,13.30
2017,06,24,01,13,13.30
2017,06,24,01,14,13.30
2017,06,24,01,15,13.30
2017,06,24,01,16,13.30
2017,06,24,01,17,13.30
2017,06,24,01,18,13.30
2017,06,24,01,19,13.20
2017,06,24,01,20,13.20
2017,06,24,01,21,13.20
2017,06,24,01,22,13.20
2017,06,24,01,23,13.20
2017,06,24,01,24,13.20
2017,06,24,01,25,13.10
2017,06,24,01,26,13.10
2017,06,24,01,27,13.10
2017,06,24,01,28,13.10
2017,06,24,01,29,13.10
2017,06,24,01,30,13.00
2017,06,24,01,31,13.00
2017,06,24,01,32,12.90
2017,06,24,01,33,12.90
2017,06,24,01,34,12.90
2017,06,24,01,35,12.90
2017,06,24,01,36,12.80
2017,06,24,01,37,12.80
2017,06,24,01,38,12.80
2017,06,24,01,39,12.80
2017,06,24,01,40,12.80
2017,06,24,01,41,12.80
2017,06,24,01,42,12.80
2017,06,24,01,43,12.80
2017,06,24,01,44,12.80
2017,06,24,01,45,12.70
2017,06,24,01,46,12.70
2017,06,24,01,47,12.70
2017,06,24,01,48,12.70
2017,06,24,01,49,12.70
2017,06,24,01,50,12.70
2017,06,24,01,51,12.70
2017,06,24,01,52,12.60
2017,06,24,01,53,12.60
2017,06,24,01,54,12.60
2017,06,24,01,55,12.60
2017,06,24,01,56,12.60
2017,06,24,01,57,12.60
2017,06,24,01,58,12.60
2017,06,24,01,59,12.60
2017,06,24,02,00,12.60
2017,06,24,02,01,12.60
2017,06,24,02,02,12.60
2017,06,24,02,03,12.60
2017,06,24,02,04,12.60
2017,06,24,02,05,12.60
2017,06,24,02,06,12.60
2017,06,24,02,07,12.60
2017,06,24,02,08,12.60
2017,06,24,02,09,12.50
2017,06,24,02,10,12.50
2017,06,24,02,11,12.50
2017,06,24,02,12,12.40
2017,06,24,02,13,12.40
2017,06,24,02,14,12.50
2017,06,24,02,15,12.40
2017,06,24,02,16,12.40
2017,06,24,02,17,12.40
2017,06,24,02,18,12.40
2017,06,24,02,19,12.50
2017,06,24,02,20,12.40
2017,06,24,02,21,12.40
2017,06,24,02,22,12.40
2017,06,24,02,23,12.40
2017,06,24,02,24,12.40
2017,06,24,02,25,12.40
2017,06,24,02,26,12.40
2017,06,24,02,27,12.40
2017,06,24,02,28,12.40
2017,06,24,02,29,12.40
2017,06,24,02,30,12.40
2017,06,24,02,31,12.40
2017,06,24,02,32,12.40
2017,06,24,02,33,12.40
2017,06,24,02,34,12.40
2017,06,24,02,35,12.40
2017,06,24,02,36,12.40
2017,06,24,02,37,12.40
2017,06,24,02,38,12.30
2017,06,24,02,39,12.30
2017,06,24,02,40,12.30
2017,06,24,02,41,12.30
2017,06,24,02,42,12.30
2017,06,24,02,43,12.30
2017,06,24,02,44,12.30
2017,06,24,02,45,12.30
2017,06,24,02,46,12.30
2017,06,24,02,47,12.30
2017,06,24,02,48,12.30
2017,06,24,02,49,12.30
2017,06,24,02,50,12.30
2017,06,24,02,51,12.20
2017,06,24,02,52,12.20
2017,06,24,02,53,12.20
2017,06,24,02,54,12.20
2017,06,24,02,55,12.20
2017,06,24,02,56,12.10
2017,06,24,02,57,12.10
2017,06,24,02,58,12.10
2017,06,24,02,59,12.00
2017,06,24,03,00,11.90
2017,06,24,03,01,11.90
2017,06,24,03,02,11.90
2017,06,24,03,03,11.80
2017,06,24,03,04,11.80
2017,06,24,03,05,11.80
2017,06,24,03,06,11.70
2017,06,24,03,07,11.70
2017,06,24,03,08,11.70
2017,06,24,03,09,11.70
2017,06,24,03,10,11.60
2017,06,24,03,11,11.60
2017,06,24,03,12,11.60
2017,06,24,03,13,11.60
2017,06,24,03,14,11.60
2017,06,24,03,15,11.60
2017,06,24,03,16,11.60
2017,06,24,03,17,11.60
2017,06,24,03,18,11.60
2017,06,24,03,19,11.50
2017,06,24,03,20,11.50
2017,06,24,03,21,11.50
2017,06,24,03,22,11.50
2017,06,24,03,23,11.50
2017,06,24,03,24,11.50
2017,06,24,03,25,11.50
2017,06,24,03,26,11.50
2017,06,24,03,27,11.50
2017,06,24,03,28,11.50
2017,06,24,03,29,11.40
2017,06,24,03,30,11.40
2017,06,24,03,31,11.40
2017,06,24,03,32,11.40
2017,06,24,03,33,11.40
2017,06,24,03,34,11.40
2017,06,24,03,35,11.40
2017,06,24,03,36,11.40
2017,06,24,03,37,11.40
2017,06,24,03,38,11.40
2017,06,24,03,39,11.40
2017,06,24,03,40,11.40
2017,06,24,03,41,11.40
2017,06,24,03,42,11.40
2017,06,24,03,43,11.40
2017,06,24,03,44,11.40
2017,06,24,03,45,11.30
2017,06,24,03,46,11.30
2017,06,24,03,47,11.30
2017,06,24,03,48,11.30
2017,06,24,03,49,11.30
2017,06,24,03,50,11.30
2017,06,24,03,51,11.30
2017,06,24,03,52,11.30
2017,06,24,03,53,11.20
2017,06,24,03,54,11.20
2017,06,24,03,55,11.20
2017,06,24,03,56,11.20
2017,06,24,03,57,11.20
2017,06,24,03,58,11.20
2017,06,24,03,59,11.20
2017,06,24,04,00,11.20
2017,06,24,04,01,11.20
2017,06,24,04,02,11.20
2017,06,24,04,03,11.20
2017,06,24,04,04,11.20
2017,06,24,04,05,11.20
2017,06,24,04,06,11.10
2017,06,24,04,07,11.10
2017,06,24,04,08,11.10
2017,06,24,04,09,11.10
2017,06,24,04,10,11.10
2017,06,24,04,11,11.10
2017,06,24,04,12,11.10
2017,06,24,04,13,11.20
2017,06,24,04,14,11.20
2017,06,24,04,15,11.20
2017,06,24,04,16,11.20
2017,06,24,04,17,11.20
2017,06,24,04,18,11.20
2017,06,24,04,19,11.20
2017,06,24,04,20,11.20
2017,06,24,04,21,11.20
2017,06,24,04,22,11.20
2017,06,24,04,23,11.20
2017,06,24,04,24,11.20
2017,06,24,04,25,11.20
2017,06,24,04,26,11.20
2017,06,24,04,27,11.20
2017,06,24,04,28,11.20
2017,06,24,04,29,11.20
2017,06,24,04,30,11.20
2017,06,24,04,31,11.20
2017,06,24,04,32,11.10
2017,06,24,04,33,11.10
2017,06,24,04,34,11.10
2017,06,24,04,35,11.10
2017,06,24,04,36,11.10
2017,06,24,04,37,11.00
2017,06,24,04,38,11.00
2017,06,24,04,39,11.00
2017,06,24,04,40,10.90
2017,06,24,04,41,10.90
2017,06,24,04,42,10.90
2017,06,24,04,43,10.90
2017,06,24,04,44,10.80
2017,06,24,04,45,10.80
2017,06,24,04,46,10.80
2017,06,24,04,47,10.80
2017,06,24,04,48,10.80
2017,06,24,04,49,10.80
2017,06,24,04,50,10.80
2017,06,24,04,51,10.80
2017,06,24,04,52,10.80
2017,06,24,04,53,10.80
2017,06,24,04,54,10.80
2017,06,24,04,55,10.80
2017,06,24,04,56,10.80
2017,06,24,04,57,10.80
2017,06,24,04,58,10.80
2017,06,24,04,59,10.80
2017,06,24,05,00,10.80
2017,06,24,05,01,10.80
2017,06,24,05,02,10.90
2017,06,24,05,03,10.90
2017,06,24,05,04,10.90
2017,06,24,05,05,10.90
2017,06,24,05,06,10.90
2017,06,24,05,07,10.90
2017,06,24,05,08,10.90
2017,06,24,05,09,10.90
2017,06,24,05,10,10.90
2017,06,24,05,11,10.90
2017,06,24,05,12,10.90
2017,06,24,05,13,10.80
2017,06,24,05,14,10.80
2017,06,24,05,15,10.80
2017,06,24,05,16,10.80
2017,06,24,05,17,10.80
2017,06,24,05,18,10.80
2017,06,24,05,19,10.80
2017,06,24,05,20,10.70
2017,06,24,05,21,10.70
2017,06,24,05,22,10.70
2017,06,24,05,23,10.70
2017,06,24,05,24,10.70
2017,06,24,05,25,10.70
2017,06,24,05,26,10.70
2017,06,24,05,27,10.70
2017,06,24,05,28,10.70
2017,06,24,05,29,10.70
2017,06,24,05,30,10.70
2017,06,24,05,31,10.70
2017,06,24,05,32,10.70
2017,06,24,05,33,10.70
2017,06,24,05,34,10.70
2017,06,24,05,35,10.70
2017,06,24,05,36,10.70
2017,06,24,05,37,10.70
2017,06,24,05,38,10.70
2017,06,24,05,39,10.70
2017,06,24,05,40,10.70
2017,06,24,05,41,10.70
2017,06,24,05,42,10.70
2017,06,24,05,43,10.70
2017,06,24,05,44,10.70
2017,06,24,05,45,10.70
2017,06,24,05,46,10.70
2017,06,24,05,47,10.70
2017,06,24,05,48,10.70
2017,06,24,05,49,10.70
2017,06,24,05,50,10.60
2017,06,24,05,51,10.60
2017,06,24,05,52,10.60
2017,06,24,05,53,10.60
2017,06,24,05,54,10.60
2017,06,24,05,55,10.60
2017,06,24,05,56,10.60
2017,06,24,05,57,10.60
2017,06,24,05,58,10.60
2017,06,24,05,59,10.70
2017,06,24,06,00,10.70
2017,06,24,06,01,10.70
2017,06,24,06,02,10.80
2017,06,24,06,03,10.80
2017,06,24,06,04,10.80
2017,06,24,06,05,10.90
2017,06,24,06,06,10.90
2017,06,24,06,07,10.90
2017,06,24,06,08,11.00
2017,06,24,06,09,11.00
2017,06,24,06,10,11.10
2017,06,24,06,11,11.10
2017,06,24,06,12,11.10
2017,06,24,06,13,11.20
2017,06,24,06,14,11.20
2017,06,24,06,15,11.20
2017,06,24,06,16,11.20
2017,06,24,06,17,11.30
2017,06,24,06,18,11.30
2017,06,24,06,19,11.30
2017,06,24,06,20,11.40
2017,06,24,06,21,11.40
2017,06,24,06,22,11.40
2017,06,24,06,23,11.50
2017,06,24,06,24,11.50
2017,06,24,06,25,11.60
2017,06,24,06,26,11.60
2017,06,24,06,27,11.70
2017,06,24,06,28,11.80
2017,06,24,06,29,11.90
2017,06,24,06,30,12.00
2017,06,24,06,31,12.00
2017,06,24,06,32,12.10
2017,06,24,06,33,12.20
2017,06,24,06,34,12.30
2017,06,24,06,35,12.30
2017,06,24,06,36,12.40
2017,06,24,06,37,12.40
2017,06,24,06,38,12.50
2017,06,24,06,39,12.50
2017,06,24,06,40,12.60
2017,06,24,06,41,12.60
2017,06,24,06,42,12.70
2017,06,24,06,43,12.80
2017,06,24,06,44,12.80
2017,06,24,06,45,12.90
2017,06,24,06,46,12.90
2017,06,24,06,47,13.00
2017,06,24,06,48,13.10
2017,06,24,06,49,13.20
2017,06,24,06,50,13.20
2017,06,24,06,51,13.30
2017,06,24,06,52,13.40
2017,06,24,06,53,13.40
2017,06,24,06,54,13.50
2017,06,24,06,55,13.60
2017,06,24,06,56,13.70
2017,06,24,06,57,13.70
2017,06,24,06,58,13.80
2017,06,24,06,59,13.90
2017,06,24,07,00,14.00
2017,06,24,07,01,14.10
2017,06,24,07,02,14.20
2017,06,24,07,03,14.30
2017,06,24,07,04,14.40
2017,06,24,07,05,14.50
2017,06,24,07,06,14.60
2017,06,24,07,07,14.70
2017,06,24,07,08,14.90
2017,06,24,07,09,15.00
2017,06,24,07,10,15.20
2017,06,24,07,11,15.40
2017,06,24,07,12,15.50
2017,06,24,07,13,15.70
2017,06,24,07,14,15.90
2017,06,24,07,15,16.00
2017,06,24,07,16,16.20
2017,06,24,07,17,16.40
2017,06,24,07,18,16.60
2017,06,24,07,19,16.70
2017,06,24,07,20,16.90
2017,06,24,07,21,17.10
2017,06,24,07,22,17.20
2017,06,24,07,23,17.40
2017,06,24,07,24,17.60
2017,06,24,07,25,17.70
2017,06,24,07,26,17.90
2017,06,24,07,27,18.00
2017,06,24,07,28,18.20
2017,06,24,07,29,18.30
2017,06,24,07,30,18.40
2017,06,24,07,31,18.60
2017,06,24,07,32,18.70
2017,06,24,07,33,18.90
2017,06,24,07,34,19.00
2017,06,24,07,35,19.20
2017,06,24,07,36,19.30
2017,06,24,07,37,19.40
2017,06,24,07,38,19.40
2017,06,24,07,39,19.50
2017,06,24,07,40,19.60
2017,06,24,07,41,19.70
2017,06,24,07,42,19.80
2017,06,24,07,43,19.90
2017,06,24,07,44,20.00
2017,06,24,07,45,20.00
2017,06,24,07,46,20.10
2017,06,24,07,47,20.20
2017,06,24,07,48,20.30
2017,06,24,07,49,20.50
2017,06,24,07,50,20.50
2017,06,24,07,51,20.60
2017,06,24,07,52,20.70
2017,06,24,07,53,20.80
2017,06,24,07,54,20.80
2017,06,24,07,55,20.90
2017,06,24,07,56,20.90
2017,06,24,07,57,21.00
2017,06,24,07,58,21.00
2017,06,24,07,59,21.10
2017,06,24,08,00,21.10
2017,06,24,08,01,21.10
2017,06,24,08,02,21.20
2017,06,24,08,03,21.20
2017,06,24,08,04,21.20
2017,06,24,08,05,21.30
2017,06,24,08,06,21.30
2017,06,24,08,07,21.40
2017,06,24,08,08,21.40
2017,06,24,08,09,21.40
2017,06,24,08,10,21.50
2017,06,24,08,11,21.50
2017,06,24,08,12,21.60
2017,06,24,08,13,21.60
2017,06,24,08,14,21.60
2017,06,24,08,15,21.70
2017,06,24,08,16,21.70
2017,06,24,08,17,21.70
2017,06,24,08,18,21.70
2017,06,24,08,19,21.80
2017,06,24,08,20,21.80
2017,06,24,08,21,21.80
2017,06,24,08,22,21.90
2017,06,24,08,23,21.90
2017,06,24,08,24,21.90
2017,06,24,08,25,21.90
2017,06,24,08,26,21.90
2017,06,24,08,27,21.90
2017,06,24,08,28,21.90
2017,06,24,08,29,21.90
2017,06,24,08,30,21.90
2017,06,24,08,31,21.90
2017,06,24,08,32,21.90
2017,06,24,08,33,21.90
2017,06,24,08,34,21.90
2017,06,24,08,35,21.90
2017,06,24,08,36,21.90
2017,06,24,08,37,21.90
2017,06,24,08,38,22.00
2017,06,24,08,39,22.00
2017,06,24,08,40,22.00
2017,06,24,08,41,22.00
2017,06,24,08,42,22.00
2017,06,24,08,43,21.90
2017,06,24,08,44,21.90
2017,06,24,08,45,21.90
2017,06,24,08,46,22.00
2017,06,24,08,47,22.00
2017,06,24,08,48,22.10
2017,06,24,08,49,22.10
2017,06,24,08,50,22.10
2017,06,24,08,51,22.20
2017,06,24,08,52,22.20
2017,06,24,08,53,22.30
2017,06,24,08,54,22.40
2017,06,24,08,55,22.40
2017,06,24,08,56,22.50
2017,06,24,08,57,22.60
2017,06,24,08,58,22.60
2017,06,24,08,59,22.70
2017,06,24,09,00,22.70
2017,06,24,09,01,22.70
2017,06,24,09,02,22.70
2017,06,24,09,03,22.60
2017,06,24,09,04,22.60
2017,06,24,09,05,22.70
2017,06,24,09,06,22.70
2017,06,24,09,07,22.80
2017,06,24,09,08,22.80
2017,06,24,09,09,22.80
2017,06,24,09,10,22.80
2017,06,24,09,11,22.80
2017,06,24,09,12,22.90
2017,06,24,09,13,22.90
2017,06,24,09,14,22.90
2017,06,24,09,15,23.00
2017,06,24,09,16,23.00
2017,06,24,09,17,23.00
2017,06,24,09,18,23.00
2017,06,24,09,19,23.00
2017,06,24,09,20,23.00
2017,06,24,09,21,23.00
2017,06,24,09,22,23.00
2017,06,24,09,23,22.90
2017,06,24,09,24,23.00
2017,06,24,09,25,23.00
2017,06,24,09,26,23.10
2017,06,24,09,27,23.20
2017,06,24,09,28,23.20
2017,06,24,09,29,23.10
2017,06,24,09,30,23.10
2017,06,24,09,31,23.10
2017,06,24,09,32,23.00
2017,06,24,09,33,22.90
2017,06,24,09,34,23.00
2017,06,24,09,35,23.00
2017,06,24,09,36,23.00
2017,06,24,09,37,23.10
2017,06,24,09,38,23.20
2017,06,24,09,39,23.20
2017,06,24,09,40,23.10
2017,06,24,09,41,23.10
2017,06,24,09,42,23.10
2017,06,24,09,43,23.10
2017,06,24,09,44,23.10
2017,06,24,09,45,23.10
2017,06,24,09,46,23.10
2017,06,24,09,47,23.10
2017,06,24,09,48,23.10
2017,06,24,09,49,23.10
2017,06,24,09,50,23.10
2017,06,24,09,51,23.10
2017,06,24,09,52,23.10
2017,06,24,09,53,23.10
2017,06,24,09,54,23.10
2017,06,24,09,55,23.10
2017,06,24,09,56,23.10
2017,06,24,09,57,23.10
2017,06,24,09,58,23.10
2017,06,24,09,59,23.10
2017,06,24,10,00,23.10
2017,06,24,10,01,23.10
2017,06,24,10,02,23.10
2017,06,24,10,03,23.10
2017,06,24,10,04,23.10
2017,06,24,10,05,23.10
2017,06,24,10,06,23.10
2017,06,24,10,07,23.10
2017,06,24,10,08,23.20
2017,06,24,10,09,23.30
2017,06,24,10,10,23.30
2017,06,24,10,11,23.30
2017,06,24,10,12,23.30
2017,06,24,10,13,23.30
2017,06,24,10,14,23.30
2017,06,24,10,15,23.30
2017,06,24,10,16,23.30
2017,06,24,10,17,23.30
2017,06,24,10,18,23.30
2017,06,24,10,19,23.30
2017,06,24,10,20,23.40
2017,06,24,10,21,23.40
2017,06,24,10,22,23.40
2017,06,24,10,23,23.50
2017,06,24,10,24,23.60
2017,06,24,10,25,23.60
2017,06,24,10,26,23.60
2017,06,24,10,27,23.60
2017,06,24,10,28,23.60
2017,06,24,10,29,23.60
2017,06,24,10,30,23.60
2017,06,24,10,31,23.60
2017,06,24,10,32,23.60
2017,06,24,10,33,23.60
2017,06,24,10,34,23.60
2017,06,24,10,35,23.60
2017,06,24,10,36,23.60
2017,06,24,10,37,23.70
2017,06,24,10,38,23.80
2017,06,24,10,39,23.90
2017,06,24,10,40,24.00
2017,06,24,10,41,24.10
2017,06,24,10,42,24.10
2017,06,24,10,43,24.10
2017,06,24,10,44,24.10
2017,06,24,10,45,24.10
2017,06,24,10,46,24.00
2017,06,24,10,47,24.00
2017,06,24,10,48,24.00
2017,06,24,10,49,23.90
2017,06,24,10,50,23.90
2017,06,24,10,51,23.90
2017,06,24,10,52,23.90
2017,06,24,10,53,24.00
2017,06,24,10,54,24.10
2017,06,24,10,55,24.10
2017,06,24,10,56,24.10
2017,06,24,10,57,24.10
2017,06,24,10,58,24.10
2017,06,24,10,59,24.10
2017,06,24,11,00,24.10
2017,06,24,11,01,24.20
2017,06,24,11,02,24.30
2017,06,24,11,03,24.30
2017,06,24,11,04,24.30
2017,06,24,11,05,24.30
2017,06,24,11,06,24.30
2017,06,24,11,07,24.30
2017,06,24,11,08,24.30
2017,06,24,11,09,24.30
2017,06,24,11,10,24.30
2017,06,24,11,11,24.40
2017,06,24,11,12,24.50
2017,06,24,11,13,24.40
2017,06,24,11,14,24.40
2017,06,24,11,15,24.40
2017,06,24,11,16,24.40
2017,06,24,11,17,24.50
2017,06,24,11,18,24.60
2017,06,24,11,19,24.70
2017,06,24,11,20,24.70
2017,06,24,11,21,24.80
2017,06,24,11,22,24.80
2017,06,24,11,23,24.80
2017,06,24,11,24,24.70
2017,06,24,11,25,24.70
2017,06,24,11,26,24.70
2017,06,24,11,27,24.70
2017,06,24,11,28,24.60
2017,06,24,11,29,24.60
2017,06,24,11,30,24.60
2017,06,24,11,31,24.60
2017,06,24,11,32,24.60
2017,06,24,11,33,24.60
2017,06,24,11,34,24.70
2017,06,24,11,35,24.80
2017,06,24,11,36,24.90
2017,06,24,11,37,25.00
2017,06,24,11,38,25.10
2017,06,24,11,39,25.20
2017,06,24,11,40,25.20
2017,06,24,11,41,25.20
2017,06,24,11,42,25.20
2017,06,24,11,43,25.30
2017,06,24,11,44,25.30
2017,06,24,11,45,25.20
2017,06,24,11,46,25.20
2017,06,24,11,47,25.20
2017,06,24,11,48,25.20
2017,06,24,11,49,25.20
2017,06,24,11,50,25.30
2017,06,24,11,51,25.30
2017,06,24,11,52,25.40
2017,06,24,11,53,25.40
2017,06,24,11,54,25.40
2017,06,24,11,55,25.30
2017,06,24,11,56,25.30
2017,06,24,11,57,25.30
2017,06,24,11,58,25.30
2017,06,24,11,59,25.30
2017,06,24,12,00,25.40
2017,06,24,12,01,25.40
2017,06,24,12,02,25.40
2017,06,24,12,03,25.30
2017,06,24,12,04,25.30
2017,06,24,12,05,25.30
2017,06,24,12,06,25.30
2017,06,24,12,07,25.30
2017,06,24,12,08,25.40
2017,06,24,12,09,25.40
2017,06,24,12,10,25.40
2017,06,24,12,11,25.40
2017,06,24,12,12,25.40
2017,06,24,12,13,25.50
2017,06,24,12,14,25.50
2017,06,24,12,15,25.50
2017,06,24,12,16,25.50
2017,06,24,12,17,25.60
2017,06,24,12,18,25.60
2017,06,24,12,19,25.60
2017,06,24,12,20,25.70
2017,06,24,12,21,25.60
2017,06,24,12,22,25.50
2017,06,24,12,23,25.40
2017,06,24,12,24,25.20
2017,06,24,12,25,25.20
2017,06,24,12,26,25.20
2017,06,24,12,27,25.20
2017,06,24,12,28,25.20
2017,06,24,12,29,25.30
2017,06,24,12,30,25.30
2017,06,24,12,31,25.30
2017,06,24,12,32,25.40
2017,06,24,12,33,25.40
2017,06,24,12,34,25.40
2017,06,24,12,35,25.40
2017,06,24,12,36,25.40
2017,06,24,12,37,25.40
2017,06,24,12,38,25.40
2017,06,24,12,39,25.40
2017,06,24,12,40,25.40
2017,06,24,12,41,25.40
2017,06,24,12,42,25.30
2017,06,24,12,43,25.30
2017,06,24,12,44,25.30
2017,06,24,12,45,25.40
2017,06,24,12,46,25.40
2017,06,24,12,47,25.50
2017,06,24,12,48,25.60
2017,06,24,12,49,25.60
2017,06,24,12,50,25.60
2017,06,24,12,51,25.60
2017,06,24,12,52,25.60
2017,06,24,12,53,25.50
2017,06,24,12,54,25.40
2017,06,24,12,55,25.40
2017,06,24,12,56,25.40
2017,06,24,12,57,25.40
2017,06,24,12,58,25.50
2017,06,24,12,59,25.50
2017,06,24,13,00,25.60
2017,06,24,13,01,25.60
2017,06,24,13,02,25.60
2017,06,24,13,03,25.70
2017,06,24,13,04,25.70
2017,06,24,13,05,25.70
2017,06,24,13,06,25.70
2017,06,24,13,07,25.60
2017,06,24,13,08,25.50
2017,06,24,13,09,25.40
2017,06,24,13,10,25.30
2017,06,24,13,11,25.30
2017,06,24,13,12,25.30
2017,06,24,13,13,25.30
2017,06,24,13,14,25.30
2017,06,24,13,15,25.30
2017,06,24,13,16,25.30
2017,06,24,13,17,25.20
2017,06,24,13,18,25.20
2017,06,24,13,19,25.20
2017,06,24,13,20,25.20
2017,06,24,13,21,25.30
2017,06,24,13,22,25.30
2017,06,24,13,23,25.30
2017,06,24,13,24,25.30
2017,06,24,13,25,25.40
2017,06,24,13,26,25.50
2017,06,24,13,27,25.50
2017,06,24,13,28,25.60
2017,06,24,13,29,25.50
2017,06,24,13,30,25.50
2017,06,24,13,31,25.40
2017,06,24,13,32,25.50
2017,06,24,13,33,25.50
2017,06,24,13,34,25.60
2017,06,24,13,35,25.60
2017,06,24,13,36,25.70
2017,06,24,13,37,25.70
2017,06,24,13,38,25.70
2017,06,24,13,39,25.80
2017,06,24,13,40,25.80
2017,06,24,13,41,25.80
2017,06,24,13,42,25.80
2017,06,24,13,43,25.80
2017,06,24,13,44,25.90
2017,06,24,13,45,25.90
2017,06,24,13,46,25.90
2017,06,24,13,47,25.90
2017,06,24,13,48,25.80
2017,06,24,13,49,25.80
2017,06,24,13,50,25.80
2017,06,24,13,51,25.80
2017,06,24,13,52,25.80
2017,06,24,13,53,25.90
2017,06,24,13,54,26.00
2017,06,24,13,55,26.10
2017,06,24,13,56,26.10
2017,06,24,13,57,26.20
2017,06,24,13,58,26.20
2017,06,24,13,59,26.30
2017,06,24,14,00,26.40
2017,06,24,14,01,26.40
2017,06,24,14,02,26.40
2017,06,24,14,03,26.30
2017,06,24,14,04,26.30
2017,06,24,14,05,26.30
2017,06,24,14,06,26.30
2017,06,24,14,07,26.30
2017,06,24,14,08,26.30
2017,06,24,14,09,26.30
2017,06,24,14,10,26.40
2017,06,24,14,11,26.40
2017,06,24,14,12,26.40
2017,06,24,14,13,26.50
2017,06,24,14,14,26.60
2017,06,24,14,15,26.60
2017,06,24,14,16,26.70
2017,06,24,14,17,26.70
2017,06,24,14,18,26.80
2017,06,24,14,19,26.80
2017,06,24,14,20,26.80
2017,06,24,14,21,26.70
2017,06,24,14,22,26.70
2017,06,24,14,23,26.70
2017,06,24,14,24,26.70
2017,06,24,14,25,26.70
2017,06,24,14,26,26.70
2017,06,24,14,27,26.80
2017,06,24,14,28,26.80
2017,06,24,14,29,26.80
2017,06,24,14,30,26.90
2017,06,24,14,31,26.90
2017,06,24,14,32,26.90
2017,06,24,14,33,27.00
2017,06,24,14,34,27.00
2017,06,24,14,35,27.10
2017,06,24,14,36,27.10
2017,06,24,14,37,27.20
2017,06,24,14,38,27.20
2017,06,24,14,39,27.30
2017,06,24,14,40,27.30
2017,06,24,14,41,27.30
2017,06,24,14,42,27.30
2017,06,24,14,43,27.30
2017,06,24,14,44,27.30
2017,06,24,14,45,27.30
2017,06,24,14,46,27.30
2017,06,24,14,47,27.30
2017,06,24,14,48,27.30
2017,06,24,14,49,27.40
2017,06,24,14,50,27.40
2017,06,24,14,51,27.40
2017,06,24,14,52,27.40
2017,06,24,14,53,27.40
2017,06,24,14,54,27.50
2017,06,24,14,55,27.50
2017,06,24,14,56,27.60
2017,06,24,14,57,27.50
2017,06,24,14,58,27.40
2017,06,24,14,59,27.40
2017,06,24,15,00,27.30
2017,06,24,15,01,27.30
2017,06,24,15,02,27.30
2017,06,24,15,03,27.40
2017,06,24,15,04,27.40
2017,06,24,15,05,27.40
2017,06,24,15,06,27.40
2017,06,24,15,07,27.40
2017,06,24,15,08,27.40
2017,06,24,15,09,27.50
2017,06,24,15,10,27.50
2017,06,24,15,11,27.50
2017,06,24,15,12,27.60
2017,06,24,15,13,27.60
2017,06,24,15,14,27.60
2017,06,24,15,15,27.60
2017,06,24,15,16,27.60
2017,06,24,15,17,27.60
2017,06,24,15,18,27.60
2017,06,24,15,19,27.70
2017,06,24,15,20,27.80
2017,06,24,15,21,27.70
2017,06,24,15,22,27.70
2017,06,24,15,23,27.70
2017,06,24,15,24,27.70
2017,06,24,15,25,27.70
2017,06,24,15,26,27.70
2017,06,24,15,27,27.70
2017,06,24,15,28,27.80
2017,06,24,15,29,27.80
2017,06,24,15,30,27.80
2017,06,24,15,31,27.80
2017,06,24,15,32,27.70
2017,06,24,15,33,27.70
2017,06,24,15,34,27.70
2017,06,24,15,35,27.70
2017,06,24,15,36,27.70
2017,06,24,15,37,27.70
2017,06,24,15,38,27.70
2017,06,24,15,39,27.70
2017,06,24,15,40,27.70
2017,06,24,15,41,27.70
2017,06,24,15,42,27.70
2017,06,24,15,43,27.70
2017,06,24,15,44,27.80
2017,06,24,15,45,27.80
2017,06,24,15,46,27.80
2017,06,24,15,47,27.80
2017,06,24,15,48,27.80
2017,06,24,15,49,27.80
2017,06,24,15,50,27.80
2017,06,24,15,51,27.80
2017,06,24,15,52,27.90
2017,06,24,15,53,27.90
2017,06,24,15,54,28.00
2017,06,24,15,55,28.00
2017,06,24,15,56,28.10
2017,06,24,15,57,28.10
2017,06,24,15,58,28.10
2017,06,24,15,59,28.20
2017,06,24,16,00,28.20
2017,06,24,16,01,28.20
2017,06,24,16,02,28.20
2017,06,24,16,03,28.20
2017,06,24,16,04,28.20
2017,06,24,16,05,28.30
2017,06,24,16,06,28.30
2017,06,24,16,07,28.30
2017,06,24,16,08,28.30
2017,06,24,16,09,28.30
2017,06,24,16,10,28.30
2017,06,24,16,11,28.30
2017,06,24,16,12,28.30
2017,06,24,16,13,28.40
2017,06,24,16,14,28.50
2017,06,24,16,15,28.60
2017,06,24,16,16,28.70
2017,06,24,16,17,28.80
2017,06,24,16,18,28.80
2017,06,24,16,19,28.90
2017,06,24,16,20,28.90
2017,06,24,16,21,28.90
2017,06,24,16,22,28.90
2017,06,24,16,23,28.90
2017,06,24,16,24,29.00
2017,06,24,16,25,29.00
2017,06,24,16,26,29.00
2017,06,24,16,27,29.00
2017,06,24,16,28,29.00
2017,06,24,16,29,29.10
2017,06,24,16,30,29.10
2017,06,24,16,31,29.00
2017,06,24,16,32,29.00
2017,06,24,16,33,28.90
2017,06,24,16,34,28.90
2017,06,24,16,35,28.90
2017,06,24,16,36,28.90
2017,06,24,16,37,29.00
2017,06,24,16,38,29.10
2017,06,24,16,39,29.10
2017,06,24,16,40,29.10
2017,06,24,16,41,29.20
2017,06,24,16,42,29.20
2017,06,24,16,43,29.10
2017,06,24,16,44,29.10
2017,06,24,16,45,29.10
2017,06,24,16,46,29.10
2017,06,24,16,47,29.00
2017,06,24,16,48,29.00
2017,06,24,16,49,29.00
2017,06,24,16,50,29.00
2017,06,24,16,51,29.00
2017,06,24,16,52,29.10
2017,06,24,16,53,29.20
2017,06,24,16,54,29.20
2017,06,24,16,55,29.30
2017,06,24,16,56,29.30
2017,06,24,16,57,29.30
2017,06,24,16,58,29.40
2017,06,24,16,59,29.40
2017,06,24,17,00,29.40
2017,06,24,17,01,29.40
2017,06,24,17,02,29.40
2017,06,24,17,03,29.40
2017,06,24,17,04,29.30
2017,06,24,17,05,29.30
2017,06,24,17,06,29.30
2017,06,24,17,07,29.30
2017,06,24,17,08,29.20
2017,06,24,17,09,29.20
2017,06,24,17,10,29.10
2017,06,24,17,11,29.10
2017,06,24,17,12,29.20
2017,06,24,17,13,29.20
2017,06,24,17,14,29.20
2017,06,24,17,15,29.20
2017,06,24,17,16,29.20
2017,06,24,17,17,29.10
2017,06,24,17,18,29.10
2017,06,24,17,19,29.10